sat.trackr.live / text

‹ back to catalog

STARLINK-3561

NORAD 52284 · 2022-041Z

PAYLOAD ACTIVE UNKNOWN

§ Identity

Operator
Country
US
Launch date
2022-04-21
Launch site
AFETR
Launch vehicle
Mass (kg)
RCS (m²)

Purposes: comms

External: N2YO · Heavens-Above · Gunter

§ Orbital elements

Epoch: 2026-05-25T05:11:40.972416Z

Period
95.44 min
Inclination
53.2138°
Eccentricity
0.0001311
Mean motion
15.08847171 rev/d
Perigee alt
538.8 km
Apogee alt
540.6 km
Semi-major
6,917.9 km
B*
-8.5120e-5
RAAN
115.5751°
Arg perigee
68.2170°
Mean anomaly
291.8961°
Rev number
22,605

§ Raw data

STARLINK-35611 52284U 22041Z   26145.21644644 -.00001643  00000+0 -85120-4 0  99942 52284  53.2138 115.5751 0001311  68.2170 291.8961 15.08847171226053

JSON: /api/v1/satellites/52284 · /tle

For live sub-satellite position, see the globe view (requires WebGL).

§ Visibility from observer

Set your observer location to see the next 7 days of passes ≥ 10°. The values pass through the URL so the page stays shareable.

No JS? Fill the form by hand. The geolocation button needs JavaScript.